This is the latest recevied weather packets stored in our database for station/object LA1HSA-13. If no packets are shown the sender has not sent any weather packets the latest 10 day(s).
| Time | Temp. | Humidity | Pressure | Rain* | Wind** | Luminosity | Snow |
|---|---|---|---|---|---|---|---|
| 1777874404 | 9.44° C | 77% | 1003.9 hPa | 0 mm | - | - | - |
| 1777873803 | 8.89° C | 78% | 1003.8 hPa | 0 mm | - | - | - |
| 1777873203 | 8.33° C | 87% | 1004 hPa | 0 mm | - | - | - |
| 1777872603 | 8.33° C | 89% | 1004.1 hPa | 0 mm | - | - | - |
| 1777872003 | 8.33° C | 91% | 1003.9 hPa | 0 mm | - | - | - |
| 1777871403 | 7.78° C | 93% | 1004 hPa | 0 mm | - | - | - |
| 1777870803 | 7.78° C | 93% | 1003.8 hPa | 0 mm | - | - | - |
| 1777870204 | 7.78° C | 93% | 1003.8 hPa | 0 mm | - | - | - |
| 1777869603 | 7.78° C | 93% | 1004.1 hPa | 0 mm | - | - | - |
| 1777869003 | 7.78° C | 93% | 1004 hPa | 0 mm | - | - | - |
| 1777868403 | 7.78° C | 94% | 1004.1 hPa | 0 mm | - | - | - |
| 1777867803 | 7.78° C | 95% | 1004 hPa | 0 mm | - | - | - |
| 1777867203 | 7.22° C | 96% | 1004.1 hPa | 0 mm | - | - | - |
| 1777866603 | 7.22° C | 96% | 1004 hPa | 0 mm | - | - | - |
| 1777866003 | 7.22° C | 96% | 1004.2 hPa | 0 mm | - | - | - |
| 1777865403 | 7.22° C | 97% | 1004.2 hPa | 0 mm | - | - | - |
| 1777864803 | 7.22° C | 97% | 1004.3 hPa | 0 mm | - | - | - |
| 1777864203 | 7.22° C | 96% | 1004.1 hPa | 0 mm | - | - | - |
| 1777863603 | 7.22° C | 96% | 1004.4 hPa | 0 mm | - | - | - |
| 1777863003 | 7.78° C | 95% | 1004.4 hPa | 0 mm | - | - | - |
| 1777862403 | 7.78° C | 94% | 1004.4 hPa | 0 mm | - | - | - |
| 1777861803 | 7.78° C | 94% | 1004.4 hPa | 0 mm | - | - | - |
| 1777861203 | 8.33° C | 93% | 1004.8 hPa | 0 mm | - | - | - |
| 1777860603 | 8.33° C | 93% | 1004.7 hPa | 0 mm | - | - | - |
| 1777860004 | 8.33° C | 93% | 1004.6 hPa | 0 mm | - | - | - |
* Rain latest hour (hover to see other rain measurements)
** Current wind speed in m/s (hover to see current wind gust speed)